Satellite-Ground Cal/Val Site Overpasses Predictions

Prediction of Satellite NPP Overpassing Cal/Val Site: Antarctic Dome C

Ground Cal/Val Site Location: Latitude: -75.10, Longitude: 123.35; Satellite-Ground Site NADIR distance within 100 km.

Table of predicted overpasses for the next 14.0 days since TLE Epoch: 3/27/2021
Interval Starting Time Ending Time Minimum Distance Time Minimum Distance (km)
1 03/29/2021 14:54:20 03/29/2021 14:54:49 03/29/2021 14:54:35 20.62
2 03/30/2021 14:35:39 03/30/2021 14:35:53 03/30/2021 14:35:46 86.40
3 03/31/2021 07:37:10 03/31/2021 07:37:37 03/31/2021 07:37:24 34.75
4 04/01/2021 07:18:24 04/01/2021 07:18:43 04/01/2021 07:18:34 75.48
5 04/03/2021 15:00:38 04/03/2021 15:01:02 04/03/2021 15:00:50 57.41
6 04/04/2021 14:41:47 04/04/2021 14:42:12 04/04/2021 14:41:59 51.77
7 04/05/2021 07:43:28 04/05/2021 07:43:49 04/05/2021 07:43:38 69.72
8 04/06/2021 07:24:35 04/06/2021 07:25:02 04/06/2021 07:24:48 38.30
9 04/08/2021 15:07:00 04/08/2021 15:07:08 04/08/2021 15:07:04 94.93
